| time (UTC) | temp C | wind direction | speed KPH | gust KPH | rain 1hr cm | rain 24hr cm | rain mn cm | humidity % | barometer mb |
| 20260906232518 | 26 | 220 | 11.3 | 24.1 | 0.00 | 0.00 | 0.00 | 22 | 1013.3 |
| 20260906232018 | 26 | 250 | 11.3 | 24.1 | 0.00 | 0.00 | 0.00 | 21 | 1013.3 |
| 20260906231547 | 26 | 213 | 11.3 | 20.9 | 0.00 | 0.00 | 0.00 | 20 | 1013.4 |
| 20260906231022 | 26 | 194 | 12.9 | 22.5 | 0.00 | 0.00 | 0.00 | 20 | 1013.3 |
| 20260906230513 | 26 | 210 | 9.7 | 22.5 | 0.00 | 0.00 | 0.00 | 20 | 1013.2 |
| 20260906230027 | 26 | 267 | 14.5 | 25.7 | 0.00 | 0.00 | 0.00 | 19 | 1013.2 |
| 20260906225514 | 27 | 211 | 14.5 | 32.2 | 0.00 | 0.00 | 0.00 | 20 | 1013.3 |
| 20260906225015 | 27 | 194 | 17.7 | 29.0 | 0.00 | 0.00 | 0.00 | 19 | 1013.3 |
| 20260906224528 | 27 | 235 | 14.5 | 25.7 | 0.00 | 0.00 | 0.00 | 20 | 1013.3 |
| 20260906224014 | 27 | 240 | 14.5 | 25.7 | 0.00 | 0.00 | 0.00 | 19 | 1013.3 |
| 20260906223516 | 27 | 240 | 16.1 | 35.4 | 0.00 | 0.00 | 0.00 | 19 | 1013.4 |
| 20260906223032 | 27 | 232 | 11.3 | 35.4 | 0.00 | 0.00 | 0.00 | 20 | 1013.4 |
| 20260906222516 | 27 | 238 | 19.3 | 29.0 | 0.00 | 0.00 | 0.00 | 19 | 1013.4 |
| 20260906222018 | 27 | 240 | 17.7 | 29.0 | 0.00 | 0.00 | 0.00 | 18 | 1013.5 |
| 20260906221537 | 27 | 234 | 12.9 | 30.6 | 0.00 | 0.00 | 0.00 | 20 | 1013.6 |
| 20260906221016 | 28 | 259 | 16.1 | 37.0 | 0.00 | 0.00 | 0.00 | 19 | 1013.6 |
| 20260906220521 | 28 | 261 | 22.5 | 37.0 | 0.00 | 0.00 | 0.00 | 19 | 1013.6 |
| 20260906220035 | 28 | 221 | 17.7 | 35.4 | 0.00 | 0.00 | 0.00 | 19 | 1013.6 |
| 20260906215516 | 28 | 264 | 16.1 | 35.4 | 0.00 | 0.00 | 0.00 | 21 | 1013.4 |
| 20260906215010 | 28 | 270 | 19.3 | 27.4 | 0.00 | 0.00 | 0.00 | 20 | 1013.7 |
| 20260906214538 | 28 | 226 | 16.1 | 33.8 | 0.00 | 0.00 | 0.00 | 19 | 1013.4 |
| 20260906214014 | 28 | 265 | 16.1 | 37.0 | 0.00 | 0.00 | 0.00 | 21 | 1013.5 |
| 20260906213520 | 28 | 205 | 20.9 | 40.2 | 0.00 | 0.00 | 0.00 | 21 | 1013.7 |
| 20260906213032 | 28 | 221 | 20.9 | 40.2 | 0.00 | 0.00 | 0.00 | 21 | 1013.8 |
| 20260906212518 | 28 | 194 | 17.7 | 37.0 | 0.00 | 0.00 | 0.00 | 21 | 1013.9 |
| 20260906212016 | 28 | 238 | 19.3 | 29.0 | 0.00 | 0.00 | 0.00 | 20 | 1014.1 |
| 20260906211534 | 28 | 219 | 19.3 | 29.0 | 0.00 | 0.00 | 0.00 | 21 | 1014.1 |
| 20260906211019 | 28 | 213 | 11.3 | 27.4 | 0.00 | 0.00 | 0.00 | 22 | 1014.1 |
| 20260906210521 | 28 | 253 | 11.3 | 27.4 | 0.00 | 0.00 | 0.00 | 23 | 1014.2 |
| 20260906210037 | 28 | 215 | 12.9 | 22.5 | 0.00 | 0.00 | 0.00 | 23 | 1014.3 |
| 20260906205518 | 28 | 189 | 12.9 | 24.1 | 0.00 | 0.00 | 0.00 | 22 | 1014.4 |
| 20260906205021 | 28 | 259 | 9.7 | 32.2 | 0.00 | 0.00 | 0.00 | 22 | 1014.6 |
| 20260906204534 | 28 | 219 | 12.9 | 32.2 | 0.00 | 0.00 | 0.00 | 23 | 1014.6 |
| 20260906204012 | 28 | 216 | 19.3 | 32.2 | 0.00 | 0.00 | 0.00 | 22 | 1014.7 |
| 20260906203516 | 28 | 227 | 17.7 | 35.4 | 0.00 | 0.00 | 0.00 | 19 | 1014.5 |
| 20260906203032 | 28 | 161 | 17.7 | 35.4 | 0.00 | 0.00 | 0.00 | 20 | 1014.4 |
| 20260906202515 | 28 | 192 | 17.7 | 32.2 | 0.00 | 0.00 | 0.00 | 19 | 1014.5 |
| 20260906202016 | 28 | 211 | 16.1 | 27.4 | 0.00 | 0.00 | 0.00 | 20 | 1014.5 |
| 20260906201600 | 28 | 224 | 14.5 | 25.7 | 0.00 | 0.00 | 0.00 | 22 | 1014.5 |
| 20260906201016 | 27 | 223 | 8.0 | 17.7 | 0.00 | 0.00 | 0.00 | 23 | 1014.6 |
| 20260906200518 | 28 | 281 | 6.4 | 20.9 | 0.00 | 0.00 | 0.00 | 26 | 1014.6 |
| 20260906200034 | 27 | 229 | 11.3 | 24.1 | 0.00 | 0.00 | 0.00 | 26 | 1014.8 |
| 20260906195522 | 28 | 155 | 6.4 | 24.1 | 0.00 | 0.00 | 0.00 | 26 | 1014.8 |
| 20260906195021 | 28 | 221 | 6.4 | 16.1 | 0.00 | 0.00 | 0.00 | 27 | 1014.9 |
| 20260906194534 | 27 | 261 | 4.8 | 11.3 | 0.00 | 0.00 | 0.00 | 29 | 1014.9 |
| 20260906194018 | 27 | 227 | 4.8 | 14.5 | 0.00 | 0.00 | 0.00 | 27 | 1015.1 |
| 20260906193518 | 27 | 269 | 4.8 | 22.5 | 0.00 | 0.00 | 0.00 | 30 | 1015.1 |
| 20260906193034 | 27 | 221 | 11.3 | 22.5 | 0.00 | 0.00 | 0.00 | 29 | 1015.2 |
| 20260906192515 | 27 | 271 | 9.7 | 20.9 | 0.00 | 0.00 | 0.00 | 30 | 1015.2 |
| 20260906192017 | 27 | 242 | 8.0 | 20.9 | 0.00 | 0.00 | 0.00 | 27 | 1015.3 |
| 20260906191534 | 27 | 254 | 9.7 | 17.7 | 0.00 | 0.00 | 0.00 | 29 | 1015.4 |
| 20260906191015 | 26 | 254 | 6.4 | 17.7 | 0.00 | 0.00 | 0.00 | 31 | 1015.5 |
| 20260906190036 | 26 | 258 | 11.3 | 19.3 | 0.00 | 0.00 | 0.00 | 29 | 1015.9 |
| 20260906185521 | 26 | 315 | 12.9 | 19.3 | 0.00 | 0.00 | 0.00 | 31 | 1015.9 |
| 20260906185018 | 26 | 262 | 6.4 | 17.7 | 0.00 | 0.00 | 0.00 | 33 | 1016.0 |
| 20260906184537 | 26 | 248 | 9.7 | 16.1 | 0.00 | 0.00 | 0.00 | 34 | 1016.1 |
| 20260906184017 | 26 | 246 | 11.3 | 16.1 | 0.00 | 0.00 | 0.00 | 35 | 1016.1 |
| 20260906183518 | 26 | 261 | 8.0 | 17.7 | 0.00 | 0.00 | 0.00 | 35 | 1016.1 |
| 20260906183037 | 26 | 276 | 8.0 | 17.7 | 0.00 | 0.00 | 0.00 | 35 | 1016.2 |
| 20260906182515 | 25 | 233 | 4.8 | 14.5 | 0.00 | 0.00 | 0.00 | 37 | 1016.2 |
| 20260906182014 | 25 | 264 | 4.8 | 12.9 | 0.00 | 0.00 | 0.00 | 36 | 1016.2 |
| 20260906181541 | 25 | 264 | 8.0 | 12.9 | 0.00 | 0.00 | 0.00 | 35 | 1016.3 |
| 20260906181017 | 25 | 181 | 3.2 | 9.7 | 0.00 | 0.00 | 0.00 | 39 | 1016.4 |
| 20260906180518 | 24 | 290 | 1.6 | 6.4 | 0.00 | 0.00 | 0.00 | 36 | 1016.6 |
| 20260906180038 | 23 | 257 | 3.2 | 6.4 | 0.00 | 0.00 | 0.00 | 39 | 1016.6 |
| 20260906175519 | 23 | 294 | 3.2 | 6.4 | 0.00 | 0.00 | 0.00 | 39 | 1016.7 |
| 20260906175018 | 23 | 287 | 4.8 | 9.7 | 0.00 | 0.00 | 0.00 | 40 | 1016.9 |
| 20260906174537 | 22 | 348 | 1.6 | 9.7 | 0.00 | 0.00 | 0.00 | 39 | 1017.0 |
| 20260906174018 | 22 | 288 | 0.0 | 4.8 | 0.00 | 0.00 | 0.00 | 39 | 1017.1 |
| 20260906173517 | 22 | 265 | 3.2 | 4.8 | 0.00 | 0.00 | 0.00 | 43 | 1017.3 |
| 20260906173037 | 22 | 234 | 0.0 | 4.8 | 0.00 | 0.00 | 0.00 | 43 | 1017.3 |
| 20260906172516 | 21 | 24 | 1.6 | 4.8 | 0.00 | 0.00 | 0.00 | 43 | 1017.4 |
| 20260906172020 | 21 | 289 | 1.6 | 4.8 | 0.00 | 0.00 | 0.00 | 42 | 1017.5 |
| 20260906171535 | 21 | 237 | 0.0 | 4.8 | 0.00 | 0.00 | 0.00 | 42 | 1017.5 |
| 20260906171015 | 21 | 275 | 1.6 | 4.8 | 0.00 | 0.00 | 0.00 | 43 | 1017.6 |
| 20260906170517 | 20 | 309 | 1.6 | 6.4 | 0.00 | 0.00 | 0.00 | 45 | 1017.5 |
| 20260906170009 | 20 | 350 | 3.2 | 6.4 | 0.00 | 0.00 | 0.00 | 44 | 1017.5 |
| 20260906165506 | 20 | 234 | 1.6 | 4.8 | 0.00 | 0.00 | 0.00 | 46 | 1017.6 |
| 20260906165006 | 20 | 261 | 1.6 | 6.4 | 0.00 | 0.00 | 0.00 | 45 | 1017.7 |
| 20260906164520 | 20 | 279 | 1.6 | 8.0 | 0.00 | 0.00 | 0.00 | 45 | 1017.6 |
| 20260906164009 | 20 | 302 | 3.2 | 8.0 | 0.00 | 0.00 | 0.00 | 46 | 1017.7 |
| 20260906163511 | 20 | 289 | 3.2 | 4.8 | 0.00 | 0.00 | 0.00 | 47 | 1017.6 |
| 20260906163041 | 19 | 263 | 1.6 | 4.8 | 0.00 | 0.00 | 0.00 | 49 | 1017.7 |
| 20260906162523 | 18 | 44 | 1.6 | 4.8 | 0.00 | 0.00 | 0.00 | 48 | 1017.7 |
| 20260906162015 | 18 | 346 | 1.6 | 4.8 | 0.00 | 0.00 | 0.00 | 50 | 1017.7 |
| 20260906161532 | 18 | 218 | 1.6 | 6.4 | 0.00 | 0.00 | 0.00 | 50 | 1017.8 |
| 20260906161002 | 17 | 188 | 1.6 | 6.4 | 0.00 | 0.00 | 0.00 | 49 | 1017.8 |
| 20260906160503 | 17 | 190 | 1.6 | 4.8 | 0.00 | 0.00 | 0.00 | 51 | 1017.9 |
| 20260906160008 | 17 | 183 | 1.6 | 4.8 | 0.00 | 0.00 | 0.00 | 51 | 1017.9 |
| 20260906155503 | 17 | 150 | 0.0 | 4.8 | 0.00 | 0.00 | 0.00 | 51 | 1017.9 |
| 20260906155004 | 17 | 167 | 0.0 | 4.8 | 0.00 | 0.00 | 0.00 | 50 | 1018.0 |
| 20260906154515 | 17 | 167 | 1.6 | 4.8 | 0.00 | 0.00 | 0.00 | 53 | 1018.1 |
| 20260906154005 | 17 | 123 | 0.0 | 3.2 | 0.00 | 0.00 | 0.00 | 52 | 1018.1 |
| 20260906153510 | 16 | 42 | 0.0 | 4.8 | 0.00 | 0.00 | 0.00 | 54 | 1018.1 |
| 20260906153023 | 16 | 349 | 1.6 | 4.8 | 0.00 | 0.00 | 0.00 | 55 | 1018.1 |
| 20260906152509 | 16 | 18 | 3.2 | 4.8 | 0.00 | 0.00 | 0.00 | 55 | 1018.1 |
| 20260906152013 | 16 | 94 | 0.0 | 3.2 | 0.00 | 0.00 | 0.00 | 55 | 1018.1 |
| 20260906151529 | 16 | 134 | 1.6 | 3.2 | 0.00 | 0.00 | 0.00 | 55 | 1018.1 |
| 20260906151021 | 15 | 133 | 1.6 | 3.2 | 0.00 | 0.00 | 0.00 | 56 | 1018.1 |
| 20260906150512 | 15 | 24 | 0.0 | 3.2 | 0.00 | 0.00 | 0.00 | 56 | 1018.2 |
| 20260906150010 | 15 | 84 | 1.6 | 3.2 | 0.00 | 0.00 | 0.00 | 57 | 1018.2 |
| 20260906145503 | 15 | 99 | 0.0 | 3.2 | 0.00 | 0.00 | 0.00 | 58 | 1018.2 |
| 20260906145004 | 14 | 61 | 1.6 | 3.2 | 0.00 | 0.00 | 0.00 | 59 | 1018.2 |
| 20260906144512 | 13 | 22 | 1.6 | 6.4 | 0.00 | 0.00 | 0.00 | 61 | 1018.2 |
| 20260906144005 | 13 | 48 | 1.6 | 6.4 | 0.00 | 0.00 | 0.00 | 62 | 1018.2 |
| 20260906143507 | 13 | 55 | 4.8 | 6.4 | 0.00 | 0.00 | 0.00 | 64 | 1018.1 |
| 20260906143019 | 12 | 57 | 3.2 | 6.4 | 0.00 | 0.00 | 0.00 | 66 | 1018.2 |
| 20260906142507 | 12 | 24 | 1.6 | 6.4 | 0.00 | 0.00 | 0.00 | 67 | 1018.2 |
| 20260906142014 | 12 | 24 | 1.6 | 6.4 | 0.00 | 0.00 | 0.00 | 67 | 1018.2 |
| 20260906141524 | 12 | 49 | 4.8 | 6.4 | 0.00 | 0.00 | 0.00 | 67 | 1018.2 |
| 20260906141012 | 12 | 348 | 0.0 | 3.2 | 0.00 | 0.00 | 0.00 | 68 | 1018.2 |
| 20260906140517 | 12 | 21 | 0.0 | 0.0 | 0.00 | 0.00 | 0.00 | 68 | 1018.2 |
| 20260906140037 | 11 | 128 | 0.0 | 0.0 | 0.00 | 0.00 | 0.00 | 70 | 1018.1 |
| 20260906135518 | 11 | 128 | 0.0 | 0.0 | 0.00 | 0.00 | 0.00 | 72 | 1018.0 |
| 20260906135015 | 10 | 128 | 0.0 | 0.0 | 0.00 | 0.00 | 0.00 | 71 | 1017.9 |
| 20260906134510 | 10 | 128 | 0.0 | 0.0 | 0.00 | 0.00 | 0.00 | 74 | 1017.9 |
| 20260906134003 | 10 | 128 | 0.0 | 0.0 | 0.00 | 0.00 | 0.00 | 74 | 1017.8 |
| 20260906133510 | 10 | 128 | 0.0 | 0.0 | 0.00 | 0.00 | 0.00 | 73 | 1017.7 |
| 20260906133017 | 10 | 128 | 0.0 | 0.0 | 0.00 | 0.00 | 0.00 | 74 | 1017.7 |
| 20260906132507 | 10 | 163 | 0.0 | 0.0 | 0.00 | 0.00 | 0.00 | 73 | 1017.7 |
| 20260906132016 | 10 | 162 | 0.0 | 0.0 | 0.00 | 0.00 | 0.00 | 72 | 1017.7 |
| 20260906131523 | 10 | 162 | 0.0 | 0.0 | 0.00 | 0.00 | 0.00 | 72 | 1017.5 |
| 20260906131011 | 10 | 162 | 0.0 | 0.0 | 0.00 | 0.00 | 0.00 | 73 | 1017.5 |
| 20260906130513 | 10 | 162 | 0.0 | 0.0 | 0.00 | 0.00 | 0.00 | 74 | 1017.5 |
| 20260906130030 | 10 | 163 | 0.0 | 3.2 | 0.00 | 0.00 | 0.00 | 70 | 1017.5 |
| 20260906125524 | 10 | 162 | 0.0 | 3.2 | 0.00 | 0.00 | 0.00 | 68 | 1017.5 |
| 20260906125013 | 10 | 162 | 1.6 | 4.8 | 0.00 | 0.00 | 0.00 | 67 | 1017.4 |
| 20260906124532 | 11 | 158 | 1.6 | 6.4 | 0.00 | 0.00 | 0.00 | 67 | 1017.4 |
| 20260906124014 | 11 | 155 | 1.6 | 8.0 | 0.00 | 0.00 | 0.00 | 67 | 1017.4 |
| 20260906123508 | 11 | 150 | 3.2 | 8.0 | 0.00 | 0.00 | 0.00 | 66 | 1017.4 |
| 20260906123030 | 11 | 162 | 3.2 | 6.4 | 0.00 | 0.00 | 0.00 | 66 | 1017.4 |
| 20260906122509 | 11 | 169 | 3.2 | 6.4 | 0.00 | 0.00 | 0.00 | 66 | 1017.2 |
| 20260906122006 | 11 | 150 | 3.2 | 6.4 | 0.00 | 0.00 | 0.00 | 66 | 1017.2 |
| 20260906121520 | 11 | 159 | 3.2 | 6.4 | 0.00 | 0.00 | 0.00 | 66 | 1017.3 |
| 20260906121010 | 11 | 148 | 1.6 | 4.8 | 0.00 | 0.00 | 0.00 | 66 | 1017.3 |
| 20260906120512 | 11 | 148 | 1.6 | 4.8 | 0.00 | 0.00 | 0.00 | 66 | 1017.3 |
| 20260906120028 | 11 | 162 | 1.6 | 4.8 | 0.00 | 0.00 | 0.00 | 66 | 1017.3 |
| 20260906115517 | 11 | 165 | 1.6 | 4.8 | 0.00 | 0.00 | 0.00 | 66 | 1017.3 |
| 20260906115016 | 11 | 151 | 0.0 | 3.2 | 0.00 | 0.00 | 0.00 | 66 | 1017.2 |
| 20260906114536 | 11 | 151 | 1.6 | 3.2 | 0.00 | 0.00 | 0.00 | 66 | 1017.2 |
| 20260906114018 | 11 | 151 | 0.0 | 3.2 | 0.00 | 0.00 | 0.00 | 66 | 1017.2 |
| 20260906113514 | 11 | 151 | 0.0 | 3.2 | 0.00 | 0.00 | 0.00 | 65 | 1017.2 |
| 20260906113032 | 11 | 155 | 1.6 | 4.8 | 0.00 | 0.00 | 0.00 | 65 | 1017.1 |
| 20260906112521 | 11 | 144 | 1.6 | 4.8 | 0.00 | 0.00 | 0.00 | 65 | 1017.1 |
| 20260906112006 | 12 | 150 | 1.6 | 4.8 | 0.00 | 0.00 | 0.00 | 64 | 1017.2 |
| 20260906111514 | 12 | 153 | 0.0 | 3.2 | 0.00 | 0.00 | 0.00 | 63 | 1017.2 |
| 20260906111010 | 12 | 168 | 1.6 | 6.4 | 0.00 | 0.00 | 0.00 | 62 | 1017.2 |
| 20260906110510 | 12 | 163 | 1.6 | 6.4 | 0.00 | 0.00 | 0.00 | 61 | 1017.2 |
| 20260906110004 | 13 | 159 | 3.2 | 8.0 | 0.00 | 0.00 | 0.00 | 61 | 1017.1 |
| 20260906105502 | 13 | 180 | 4.8 | 8.0 | 0.00 | 0.00 | 0.00 | 61 | 1017.2 |
| 20260906105004 | 13 | 190 | 3.2 | 11.3 | 0.00 | 0.00 | 0.00 | 60 | 1017.1 |
| 20260906104505 | 13 | 205 | 3.2 | 11.3 | 0.00 | 0.00 | 0.00 | 60 | 1017.1 |
| 20260906104003 | 13 | 190 | 6.4 | 11.3 | 0.00 | 0.00 | 0.00 | 60 | 1017.0 |
| 20260906103506 | 13 | 200 | 4.8 | 12.9 | 0.00 | 0.00 | 0.00 | 60 | 1017.0 |
| 20260906103008 | 13 | 180 | 3.2 | 12.9 | 0.00 | 0.00 | 0.00 | 60 | 1017.0 |
| 20260906102503 | 13 | 201 | 4.8 | 9.7 | 0.00 | 0.00 | 0.00 | 59 | 1017.0 |
| 20260906102007 | 13 | 173 | 4.8 | 9.7 | 0.00 | 0.00 | 0.00 | 59 | 1016.9 |
| 20260906101514 | 13 | 160 | 4.8 | 9.7 | 0.00 | 0.00 | 0.00 | 59 | 1016.8 |
| 20260906101006 | 13 | 155 | 3.2 | 9.7 | 0.00 | 0.00 | 0.00 | 58 | 1016.8 |
| 20260906100515 | 13 | 207 | 6.4 | 12.9 | 0.00 | 0.00 | 0.00 | 58 | 1016.7 |
| 20260906100019 | 13 | 185 | 6.4 | 12.9 | 0.00 | 0.00 | 0.00 | 58 | 1016.6 |
| 20260906095512 | 13 | 211 | 4.8 | 11.3 | 0.00 | 0.00 | 0.00 | 58 | 1016.6 |
| 20260906095002 | 13 | 165 | 3.2 | 12.9 | 0.00 | 0.00 | 0.00 | 58 | 1016.5 |
| 20260906094504 | 13 | 201 | 6.4 | 17.7 | 0.00 | 0.00 | 0.00 | 58 | 1016.3 |
| 20260906094003 | 14 | 260 | 9.7 | 17.7 | 0.00 | 0.00 | 0.00 | 57 | 1016.1 |
| 20260906093503 | 14 | 211 | 6.4 | 19.3 | 0.00 | 0.00 | 0.00 | 57 | 1015.9 |
| 20260906093011 | 14 | 244 | 8.0 | 19.3 | 0.00 | 0.00 | 0.00 | 56 | 1015.9 |
| 20260906092504 | 14 | 249 | 11.3 | 17.7 | 0.00 | 0.00 | 0.00 | 55 | 1015.8 |
| 20260906092008 | 15 | 248 | 6.4 | 16.1 | 0.00 | 0.00 | 0.00 | 51 | 1015.7 |
| 20260906091509 | 15 | 247 | 8.0 | 14.5 | 0.00 | 0.00 | 0.00 | 48 | 1015.6 |
| 20260906091008 | 15 | 236 | 4.8 | 11.3 | 0.00 | 0.00 | 0.00 | 45 | 1015.5 |
| 20260906090508 | 15 | 249 | 3.2 | 4.8 | 0.00 | 0.00 | 0.00 | 44 | 1015.4 |
| 20260906090020 | 15 | 249 | 3.2 | 12.9 | 0.00 | 0.00 | 0.00 | 41 | 1015.4 |
| 20260906085509 | 16 | 263 | 3.2 | 19.3 | 0.00 | 0.00 | 0.00 | 39 | 1015.3 |
| 20260906085013 | 17 | 273 | 11.3 | 19.3 | 0.00 | 0.00 | 0.00 | 35 | 1015.2 |
| 20260906084527 | 18 | 178 | 8.0 | 20.9 | 0.00 | 0.00 | 0.00 | 34 | 1014.9 |
| 20260906084003 | 18 | 253 | 9.7 | 20.9 | 0.00 | 0.00 | 0.00 | 34 | 1014.9 |
| 20260906083503 | 18 | 157 | 8.0 | 29.0 | 0.00 | 0.00 | 0.00 | 33 | 1014.9 |
| 20260906083004 | 20 | 186 | 8.0 | 30.6 | 0.00 | 0.00 | 0.00 | 31 | 1014.9 |
| 20260906082504 | 18 | 176 | 14.5 | 30.6 | 0.00 | 0.00 | 0.00 | 32 | 1014.9 |
| 20260906082016 | 19 | 204 | 6.4 | 25.7 | 0.00 | 0.00 | 0.00 | 32 | 1014.9 |
| 20260906081507 | 20 | 229 | 6.4 | 25.7 | 0.00 | 0.00 | 0.00 | 31 | 1014.9 |
| 20260906081004 | 19 | 196 | 14.5 | 25.7 | 0.00 | 0.00 | 0.00 | 33 | 1014.9 |
| 20260906080516 | 18 | 275 | 9.7 | 16.1 | 0.00 | 0.00 | 0.00 | 33 | 1015.1 |
| 20260906080015 | 18 | 244 | 8.0 | 17.7 | 0.00 | 0.00 | 0.00 | 33 | 1015.1 |
| 20260906075509 | 18 | 216 | 11.3 | 17.7 | 0.00 | 0.00 | 0.00 | 32 | 1014.9 |
| 20260906075017 | 19 | 207 | 8.0 | 17.7 | 0.00 | 0.00 | 0.00 | 32 | 1014.9 |
| 20260906074521 | 18 | 185 | 9.7 | 17.7 | 0.00 | 0.00 | 0.00 | 32 | 1014.9 |
| 20260906074012 | 18 | 184 | 9.7 | 16.1 | 0.00 | 0.00 | 0.00 | 33 | 1014.9 |
| 20260906073513 | 18 | 157 | 9.7 | 16.1 | 0.00 | 0.00 | 0.00 | 34 | 1014.9 |
| 20260906073046 | 17 | 169 | 8.0 | 14.5 | 0.00 | 0.00 | 0.00 | 37 | 1014.8 |
| 20260906072514 | 15 | 156 | 3.2 | 11.3 | 0.00 | 0.00 | 0.00 | 41 | 1014.8 |
| 20260906072015 | 14 | 30 | 0.0 | 3.2 | 0.00 | 0.00 | 0.00 | 44 | 1014.9 |
| 20260906071530 | 15 | 30 | 1.6 | 3.2 | 0.00 | 0.00 | 0.00 | 45 | 1014.9 |
| 20260906071019 | 15 | 237 | 0.0 | 3.2 | 0.00 | 0.00 | 0.00 | 43 | 1015.0 |
| 20260906070519 | 15 | 237 | 0.0 | 3.2 | 0.00 | 0.00 | 0.00 | 43 | 1014.9 |
| 20260906070016 | 14 | 224 | 1.6 | 4.8 | 0.00 | 0.00 | 0.00 | 42 | 1015.0 |
| 20260906065508 | 14 | 290 | 1.6 | 4.8 | 0.00 | 0.00 | 0.00 | 45 | 1015.1 |
| 20260906065020 | 14 | 17 | 1.6 | 4.8 | 0.00 | 0.00 | 0.00 | 46 | 1015.1 |
| 20260906064521 | 14 | 333 | 0.0 | 4.8 | 0.00 | 0.00 | 0.00 | 44 | 1015.2 |
| 20260906064010 | 14 | 352 | 1.6 | 4.8 | 0.00 | 0.00 | 0.00 | 43 | 1015.2 |
| 20260906063512 | 14 | 340 | 3.2 | 4.8 | 0.00 | 0.00 | 0.00 | 46 | 1015.2 |
| 20260906063026 | 15 | 360 | 0.0 | 4.8 | 0.00 | 0.00 | 0.00 | 42 | 1015.2 |
| 20260906062515 | 15 | 63 | 0.0 | 6.4 | 0.00 | 0.00 | 0.00 | 43 | 1015.3 |
| 20260906062014 | 16 | 78 | 3.2 | 8.0 | 0.00 | 0.00 | 0.00 | 39 | 1015.4 |
| 20260906061534 | 16 | 82 | 3.2 | 9.7 | 0.00 | 0.00 | 0.00 | 39 | 1015.4 |
| 20260906061015 | 16 | 65 | 3.2 | 11.3 | 0.00 | 0.00 | 0.00 | 35 | 1015.5 |
| 20260906060519 | 16 | 92 | 4.8 | 11.3 | 0.00 | 0.00 | 0.00 | 35 | 1015.6 |
| 20260906060033 | 16 | 65 | 4.8 | 11.3 | 0.00 | 0.00 | 0.00 | 35 | 1015.6 |
| 20260906055519 | 16 | 115 | 6.4 | 11.3 | 0.00 | 0.00 | 0.00 | 34 | 1015.7 |
| 20260906055007 | 16 | 115 | 4.8 | 9.7 | 0.00 | 0.00 | 0.00 | 35 | 1015.7 |
| 20260906054520 | 17 | 69 | 3.2 | 11.3 | 0.00 | 0.00 | 0.00 | 35 | 1015.8 |
| 20260906054008 | 17 | 75 | 4.8 | 11.3 | 0.00 | 0.00 | 0.00 | 34 | 1015.8 |
| 20260906053507 | 17 | 95 | 4.8 | 9.7 | 0.00 | 0.00 | 0.00 | 34 | 1016.0 |
| 20260906053033 | 17 | 85 | 3.2 | 12.9 | 0.00 | 0.00 | 0.00 | 34 | 1016.1 |
| 20260906052511 | 17 | 94 | 6.4 | 12.9 | 0.00 | 0.00 | 0.00 | 35 | 1016.1 |
| 20260906052014 | 17 | 61 | 8.0 | 12.9 | 0.00 | 0.00 | 0.00 | 36 | 1016.2 |
| 20260906051527 | 16 | 107 | 8.0 | 12.9 | 0.00 | 0.00 | 0.00 | 37 | 1016.3 |
| 20260906051015 | 15 | 105 | 3.2 | 9.7 | 0.00 | 0.00 | 0.00 | 42 | 1016.3 |
| 20260906050516 | 16 | 76 | 1.6 | 3.2 | 0.00 | 0.00 | 0.00 | 44 | 1016.4 |
| 20260906050042 | 16 | 42 | 1.6 | 1.6 | 0.00 | 0.00 | 0.00 | 46 | 1016.4 |
| 20260906045515 | 16 | 42 | 1.6 | 3.2 | 0.00 | 0.00 | 0.00 | 44 | 1016.4 |
| 20260906045014 | 17 | 42 | 1.6 | 4.8 | 0.00 | 0.00 | 0.00 | 43 | 1016.4 |
| 20260906044535 | 17 | 64 | 0.0 | 4.8 | 0.00 | 0.00 | 0.00 | 40 | 1016.5 |
| 20260906044017 | 18 | 57 | 1.6 | 4.8 | 0.00 | 0.00 | 0.00 | 38 | 1016.5 |
| 20260906043508 | 18 | 61 | 1.6 | 6.4 | 0.00 | 0.00 | 0.00 | 37 | 1016.6 |
| 20260906043024 | 18 | 59 | 3.2 | 8.0 | 0.00 | 0.00 | 0.00 | 37 | 1016.6 |
| 20260906042512 | 19 | 59 | 3.2 | 9.7 | 0.00 | 0.00 | 0.00 | 36 | 1016.6 |
| 20260906042010 | 20 | 75 | 3.2 | 16.1 | 0.00 | 0.00 | 0.00 | 36 | 1016.7 |
| 20260906041527 | 20 | 76 | 4.8 | 16.1 | 0.00 | 0.00 | 0.00 | 36 | 1016.7 |
| 20260906041013 | 19 | 78 | 11.3 | 16.1 | 0.00 | 0.00 | 0.00 | 37 | 1016.7 |
| 20260906040516 | 18 | 110 | 8.0 | 12.9 | 0.00 | 0.00 | 0.00 | 38 | 1016.6 |
| 20260906040030 | 18 | 82 | 3.2 | 9.7 | 0.00 | 0.00 | 0.00 | 38 | 1016.6 |
| 20260906035515 | 18 | 142 | 4.8 | 9.7 | 0.00 | 0.00 | 0.00 | 40 | 1016.7 |
| 20260906035014 | 17 | 129 | 1.6 | 6.4 | 0.00 | 0.00 | 0.00 | 40 | 1016.8 |
| 20260906034535 | 17 | 140 | 3.2 | 4.8 | 0.00 | 0.00 | 0.00 | 41 | 1016.8 |
| 20260906034016 | 18 | 132 | 1.6 | 4.8 | 0.00 | 0.00 | 0.00 | 41 | 1016.8 |
| 20260906033515 | 18 | 123 | 1.6 | 4.8 | 0.00 | 0.00 | 0.00 | 41 | 1016.8 |
| 20260906033038 | 18 | 105 | 3.2 | 6.4 | 0.00 | 0.00 | 0.00 | 40 | 1016.9 |
| 20260906032510 | 18 | 128 | 1.6 | 6.4 | 0.00 | 0.00 | 0.00 | 39 | 1016.9 |
| 20260906032012 | 18 | 145 | 3.2 | 6.4 | 0.00 | 0.00 | 0.00 | 40 | 1017.0 |
| 20260906031523 | 18 | 96 | 1.6 | 3.2 | 0.00 | 0.00 | 0.00 | 41 | 1016.9 |
| 20260906031015 | 17 | 131 | 1.6 | 3.2 | 0.00 | 0.00 | 0.00 | 43 | 1016.9 |
| 20260906030515 | 18 | 102 | 0.0 | 0.0 | 0.00 | 0.00 | 0.00 | 43 | 1016.8 |
| 20260906030028 | 18 | 102 | 0.0 | 3.2 | 0.00 | 0.00 | 0.00 | 41 | 1016.7 |
| 20260906025516 | 18 | 102 | 0.0 | 3.2 | 0.00 | 0.00 | 0.00 | 41 | 1016.7 |
| 20260906025017 | 19 | 102 | 1.6 | 3.2 | 0.00 | 0.00 | 0.00 | 41 | 1016.7 |
| 20260906024530 | 19 | 102 | 0.0 | 3.2 | 0.00 | 0.00 | 0.00 | 40 | 1016.7 |
| 20260906024016 | 20 | 102 | 0.0 | 3.2 | 0.00 | 0.00 | 0.00 | 38 | 1016.6 |
| 20260906023516 | 20 | 102 | 1.6 | 3.2 | 0.00 | 0.00 | 0.00 | 37 | 1016.6 |
| 20260906023037 | 20 | 93 | 1.6 | 3.2 | 0.00 | 0.00 | 0.00 | 37 | 1016.5 |
| 20260906022520 | 20 | 123 | 0.0 | 1.6 | 0.00 | 0.00 | 0.00 | 37 | 1016.4 |
| 20260906022017 | 21 | 130 | 0.0 | 1.6 | 0.00 | 0.00 | 0.00 | 36 | 1016.4 |
| 20260906021536 | 21 | 130 | 0.0 | 1.6 | 0.00 | 0.00 | 0.00 | 34 | 1016.4 |
| 20260906021012 | 22 | 130 | 1.6 | 3.2 | 0.00 | 0.00 | 0.00 | 32 | 1016.4 |
| 20260906020515 | 22 | 121 | 1.6 | 3.2 | 0.00 | 0.00 | 0.00 | 31 | 1016.4 |
| 20260906020027 | 22 | 123 | 1.6 | 3.2 | 0.00 | 0.00 | 0.00 | 30 | 1016.4 |
| 20260906015514 | 22 | 135 | 0.0 | 3.2 | 0.00 | 0.00 | 0.00 | 31 | 1016.4 |
| 20260906015014 | 22 | 194 | 0.0 | 3.2 | 0.00 | 0.00 | 0.00 | 31 | 1016.4 |
| 20260906014542 | 23 | 194 | 0.0 | 3.2 | 0.00 | 0.00 | 0.00 | 29 | 1016.4 |
| 20260906014019 | 24 | 194 | 1.6 | 4.8 | 0.00 | 0.00 | 0.00 | 27 | 1016.4 |
| 20260906013518 | 24 | 221 | 3.2 | 6.4 | 0.00 | 0.00 | 0.00 | 26 | 1016.4 |
| 20260906013034 | 24 | 253 | 3.2 | 11.3 | 0.00 | 0.00 | 0.00 | 26 | 1016.5 |
| 20260906012522 | 24 | 242 | 4.8 | 11.3 | 0.00 | 0.00 | 0.00 | 26 | 1016.4 |
| 20260906012019 | 25 | 236 | 4.8 | 11.3 | 0.00 | 0.00 | 0.00 | 26 | 1016.5 |
| 20260906011549 | 25 | 265 | 6.4 | 11.3 | 0.00 | 0.00 | 0.00 | 26 | 1016.5 |
| 20260906011018 | 25 | 240 | 4.8 | 12.9 | 0.00 | 0.00 | 0.00 | 25 | 1016.5 |
| 20260906010516 | 25 | 258 | 6.4 | 12.9 | 0.00 | 0.00 | 0.00 | 26 | 1016.5 |
| 20260906010027 | 25 | 222 | 6.4 | 11.3 | 0.00 | 0.00 | 0.00 | 26 | 1016.4 |
| 20260906005517 | 25 | 255 | 4.8 | 16.1 | 0.00 | 0.00 | 0.00 | 26 | 1016.4 |
| 20260906005017 | 25 | 265 | 9.7 | 16.1 | 0.00 | 0.00 | 0.00 | 26 | 1016.4 |
| 20260906004528 | 26 | 234 | 8.0 | 11.3 | 0.00 | 0.00 | 0.00 | 28 | 1016.4 |
| 20260906004015 | 26 | 311 | 4.8 | 9.7 | 0.00 | 0.00 | 0.00 | 26 | 1016.3 |
| 20260906003515 | 26 | 280 | 3.2 | 9.7 | 0.00 | 0.00 | 0.00 | 26 | 1016.3 |
| 20260906003033 | 26 | 259 | 4.8 | 14.5 | 0.00 | 0.00 | 0.00 | 26 | 1016.3 |
| 20260906002517 | 26 | 288 | 6.4 | 16.1 | 0.00 | 0.00 | 0.00 | 26 | 1016.2 |
| 20260906002016 | 26 | 248 | 8.0 | 16.1 | 0.00 | 0.00 | 0.00 | 26 | 1016.3 |
| 20260906001535 | 26 | 247 | 11.3 | 17.7 | 0.00 | 0.00 | 0.00 | 26 | 1016.3 |
| 20260906001018 | 26 | 244 | 4.8 | 17.7 | 0.00 | 0.00 | 0.00 | 26 | 1016.3 |
| 20260906000516 | 26 | 259 | 8.0 | 17.7 | 0.00 | 0.00 | 0.00 | 27 | 1016.3 |
| 20260906000039 | 26 | 257 | 8.0 | 16.1 | 0.00 | 0.00 | 0.00 | 27 | 1016.3 |
| 20260905235522 | 27 | 252 | 9.7 | 16.1 | 0.00 | 0.00 | 0.00 | 26 | 1016.4 |
| 20260905235014 | 27 | 268 | 6.4 | 16.1 | 0.00 | 0.00 | 0.00 | 25 | 1016.3 |
| 20260905234529 | 27 | 255 | 8.0 | 16.1 | 0.00 | 0.00 | 0.00 | 26 | 1016.3 |
| 20260905234012 | 27 | 248 | 6.4 | 14.5 | 0.00 | 0.00 | 0.00 | 27 | 1016.3 |
| 20260905233517 | 27 | 260 | 4.8 | 17.7 | 0.00 | 0.00 | 0.00 | 27 | 1016.3 |
| 20260905233033 | 27 | 257 | 9.7 | 17.7 | 0.00 | 0.00 | 0.00 | 27 | 1016.2 |